Location: Krakow
(50.0830°N, 19.9170°E)
Time: 05:14:25
(UTC+01:00)

SR - Pass Details

Date: 13 February 2023
Orbit: 582 x 867 km, 66.7° (Epoch: 20 March)

Event Time Altitude Azimuth Distance (km) Brightness Sun altitude
Rises 12:19:19 0° 219° (SW) 3,164 ? 26.3°
Reaches altitude 10° 12:21:46 10° 220° (SW) 2,198 ? 26.3°
Maximum altitude 12:26:45 78° 307° (NW) 694 ? 26.2°
Drops below altitude 10° 12:31:22 10° 35° (NE) 2,036 ? 26.0°
Sets 12:33:34 0° 37° (NE) 2,913 ? 26.0°
